Погода в Синезёрках

Россия / Брянская область     53°01′36″N   34°26′03″E
темп.,
°C
ветер,
м/с
пор.,
м/с
влажн.,
%
обл.,
%
осадки,
мм/ч
давл.,
гПа
погр.,
м
26 июля, пн
пн2600:00+16ююв22804 0.0 102220
03:00+15ююв22833 0.0 102215
06:00+16юв11861 0.0 102328
09:00+22юв12584 0.0 1023400
12:00+27ю23431 0.0 10221873
15:00+27юз234392 0.0 10211848
18:00+26ю245119 0.0 1021614
21:00+20вюв247484 0.2 102287
27 июля, вт
вт2700:00+19ююв22795 0.0 102243
03:00+17ю2280100 0.0 102230
06:00+17юв117978 0.0 102215
09:00+23ююв24555 0.0 1022371
12:00+28ю35375 0.0 10201555
15:00+29ю3534100 0.0 10192681
18:00+24з2352100 0.0 101991
21:00+21вюв346148 0.0 101862
28 июля, ср
ср2800:00+19ююв226977 0.0 101816
03:00+20ююз2662100 0.0 1017163
06:00+19юв2370100 0.1 101666
09:00+17в3494100 2.1 101588
12:00+23ююв5955100 0.3 1013670
15:00+25вюв246648 1.2 1012586
18:00+22зсз2887100 6.6 1010327
21:00+20ююз119393 8.1 101011
29 июля, чт
чт2900:00+18юз269816 0.2 1011119
03:00+17зюз24975 0.2 101173
06:00+18з11955 0.0 101018
09:00+23зюз127745 0.0 1010310
12:00+28юз24515 0.0 10091609
15:00+29з3542100 0.0 10082238
18:00+22юв2385100 1.1 100888
21:00+19зюз2295100 2.6 100950
30 июля, пт
пт3000:00+18зсз2297100 2.0 100826
03:00+17зсз239811 2.5 100970
06:00+17зсз23977 0.0 100986
09:00+21зсз24792 0.0 1010412
12:00+26зсз345626 0.0 10091480
15:00+27з46435 0.2 10092213
18:00+25з364995 0.0 1009850
21:00+20юз22685 0.0 100935